N658KP KCLS-K33S

Flight info

Callsign N658KP
Flight time 1h 5m
Altitude 9000
Route COFAY T317 MERFF T268 SUBDY
Aircraft C310/L-SDFGR/S

Departure

Time 2026-05-08 04:56
Airport Chehalis Centralia Airport (KCLS)

Arrival

Time 2026-05-08 06:01
Airport Pru Field (K33S)
Time Latitude Longitude Altitude Speed Heading
2026-05-08 04:44 46.67352 -122.98497 177 ft 0 kts 349°
2026-05-08 04:45 46.67353 -122.98497 177 ft 0 kts 350°
2026-05-08 04:45 46.67354 -122.98497 177 ft 0 kts 350°
2026-05-08 04:48 46.67355 -122.98498 177 ft 0 kts 353°
2026-05-08 04:48 46.67360 -122.98499 177 ft 2 kts 349°
2026-05-08 04:48 46.67379 -122.98492 176 ft 3 kts 41°
2026-05-08 04:48 46.67413 -122.98473 176 ft 6 kts
2026-05-08 04:49 46.67428 -122.98473 175 ft 0 kts 359°
2026-05-08 04:50 46.67445 -122.98476 175 ft 5 kts 354°
2026-05-08 04:50 46.67497 -122.98480 174 ft 9 kts 358°
2026-05-08 04:50 46.67572 -122.98486 174 ft 11 kts 358°
2026-05-08 04:51 46.67661 -122.98488 174 ft 13 kts 359°
2026-05-08 04:51 46.67755 -122.98487 174 ft 14 kts
2026-05-08 04:51 46.67860 -122.98485 174 ft 15 kts
2026-05-08 04:51 46.67966 -122.98476 174 ft 15 kts
2026-05-08 04:52 46.68074 -122.98467 174 ft 15 kts 12°
2026-05-08 04:52 46.68187 -122.98458 174 ft 16 kts 356°
2026-05-08 04:52 46.68304 -122.98457 174 ft 16 kts
2026-05-08 04:52 46.68404 -122.98429 174 ft 8 kts 97°
2026-05-08 04:53 46.68403 -122.98424 174 ft 0 kts 122°
2026-05-08 04:55 46.68397 -122.98413 174 ft 3 kts 130°
2026-05-08 04:55 46.68382 -122.98361 174 ft 7 kts 90°
2026-05-08 04:55 46.68306 -122.98304 174 ft 29 kts 176°
2026-05-08 04:56 46.67811 -122.98275 181 ft 103 kts 178°
2026-05-08 04:56 46.67018 -122.98228 451 ft 121 kts 176°
2026-05-08 04:56 46.66176 -122.98244 974 ft 118 kts 202°
2026-05-08 04:56 46.65643 -122.99149 1373 ft 126 kts 251°
2026-05-08 04:57 46.65712 -123.00485 1644 ft 133 kts 300°
2026-05-08 04:57 46.66404 -123.01329 1983 ft 132 kts 344°
2026-05-08 04:57 46.67303 -123.01186 2324 ft 134 kts 28°
2026-05-08 04:57 46.67909 -123.00134 2668 ft 138 kts 60°
2026-05-08 04:58 46.68359 -122.98852 3013 ft 140 kts 57°
2026-05-08 04:58 46.68934 -122.97665 3364 ft 141 kts 48°
2026-05-08 04:58 46.69597 -122.96600 3710 ft 141 kts 43°
2026-05-08 04:58 46.70319 -122.95590 4058 ft 142 kts 40°
2026-05-08 04:59 46.71076 -122.94610 4408 ft 143 kts 39°
2026-05-08 04:59 46.71850 -122.93646 4758 ft 144 kts 38°
2026-05-08 04:59 46.72638 -122.92685 5113 ft 145 kts 37°
2026-05-08 04:59 46.73436 -122.91721 5472 ft 145 kts 37°
2026-05-08 05:00 46.74230 -122.90769 5826 ft 146 kts 37°
2026-05-08 05:00 46.75039 -122.89801 6186 ft 146 kts 37°
2026-05-08 05:00 46.75845 -122.88844 6549 ft 146 kts 38°
2026-05-08 05:00 46.76653 -122.87877 6910 ft 146 kts 37°
2026-05-08 05:01 46.77473 -122.86895 7274 ft 147 kts 37°
2026-05-08 05:01 46.78293 -122.85915 7633 ft 147 kts 37°
2026-05-08 05:01 46.79129 -122.84917 7994 ft 148 kts 37°
2026-05-08 05:01 46.79974 -122.83907 8355 ft 149 kts 37°
2026-05-08 05:02 46.80814 -122.82903 8711 ft 150 kts 37°
2026-05-08 05:02 46.81683 -122.81866 8963 ft 159 kts 36°
2026-05-08 05:02 46.82628 -122.80738 9007 ft 177 kts 37°
2026-05-08 05:02 46.83667 -122.79493 9009 ft 189 kts 37°
2026-05-08 05:03 46.84738 -122.78208 9004 ft 195 kts 37°
2026-05-08 05:03 46.85825 -122.76904 9003 ft 198 kts 37°
2026-05-08 05:03 46.86929 -122.75579 9002 ft 201 kts 37°
2026-05-08 05:03 46.88044 -122.74243 9002 ft 202 kts 38°
2026-05-08 05:04 46.89145 -122.72922 9000 ft 203 kts 38°
2026-05-08 05:04 46.90254 -122.71589 9000 ft 204 kts 38°
2026-05-08 05:04 46.91374 -122.70242 9000 ft 205 kts 38°
2026-05-08 05:04 46.92504 -122.68883 9000 ft 205 kts 38°
2026-05-08 05:05 46.93621 -122.67539 9000 ft 205 kts 38°
2026-05-08 05:05 46.94739 -122.66193 9000 ft 205 kts 38°
2026-05-08 05:05 46.95846 -122.64861 9000 ft 205 kts 38°
2026-05-08 05:05 46.96960 -122.63519 9000 ft 205 kts 38°
2026-05-08 05:06 46.98068 -122.62183 9000 ft 205 kts 38°
2026-05-08 05:06 46.99163 -122.60860 9000 ft 206 kts 38°
2026-05-08 05:06 47.00251 -122.59482 9000 ft 206 kts 38°
2026-05-08 05:06 47.01352 -122.58120 9000 ft 206 kts 38°
2026-05-08 05:07 47.02459 -122.56770 9000 ft 206 kts 38°
2026-05-08 05:07 47.03577 -122.55415 9000 ft 206 kts 38°
2026-05-08 05:07 47.04688 -122.54073 9000 ft 206 kts 38°
2026-05-08 05:07 47.05819 -122.52728 9014 ft 205 kts 37°
2026-05-08 05:08 47.06950 -122.51369 9014 ft 205 kts 43°
2026-05-08 05:08 47.07581 -122.49473 9039 ft 205 kts 76°
2026-05-08 05:08 47.07873 -122.47373 9019 ft 206 kts 81°
2026-05-08 05:08 47.08066 -122.45223 9020 ft 207 kts 83°
2026-05-08 05:09 47.08218 -122.43045 9019 ft 207 kts 84°
2026-05-08 05:09 47.08351 -122.40858 9019 ft 207 kts 85°
2026-05-08 05:09 47.08471 -122.38681 9019 ft 207 kts 85°
2026-05-08 05:09 47.08586 -122.36465 9019 ft 207 kts 85°
2026-05-08 05:10 47.08695 -122.34281 9018 ft 207 kts 86°
2026-05-08 05:10 47.08904 -122.29919 9018 ft 207 kts 86°
2026-05-08 05:10 47.09007 -122.27705 9018 ft 207 kts 86°
2026-05-08 05:11 47.09110 -122.25480 9018 ft 207 kts 86°
2026-05-08 05:11 47.09208 -122.23353 9018 ft 207 kts 86°
2026-05-08 05:11 47.09305 -122.21242 9018 ft 207 kts 87°
2026-05-08 05:11 47.09400 -122.19141 9018 ft 206 kts 87°
2026-05-08 05:12 47.09494 -122.17031 9018 ft 206 kts 87°
2026-05-08 05:12 47.09589 -122.14889 9018 ft 206 kts 87°
2026-05-08 05:12 47.09683 -122.12785 9018 ft 206 kts 87°
2026-05-08 05:12 47.09775 -122.10683 9018 ft 206 kts 87°
2026-05-08 05:13 47.09868 -122.08581 9018 ft 206 kts 87°
2026-05-08 05:13 47.09961 -122.06454 9018 ft 206 kts 87°
2026-05-08 05:13 47.10054 -122.04322 9018 ft 206 kts 87°
2026-05-08 05:13 47.10146 -122.02200 9017 ft 206 kts 87°
2026-05-08 05:14 47.10239 -122.00066 9017 ft 206 kts 87°
2026-05-08 05:14 47.10331 -121.97912 9017 ft 206 kts 87°
2026-05-08 05:14 47.10424 -121.95757 9017 ft 206 kts 87°
2026-05-08 05:14 47.10515 -121.93634 9017 ft 205 kts 87°
2026-05-08 05:15 47.10587 -121.91499 9013 ft 205 kts 93°
2026-05-08 05:15 47.10464 -121.89396 9016 ft 205 kts 96°
2026-05-08 05:15 47.10317 -121.87306 9018 ft 205 kts 97°
2026-05-08 05:15 47.10162 -121.85178 9018 ft 205 kts 97°
2026-05-08 05:16 47.09999 -121.83002 9017 ft 205 kts 97°
2026-05-08 05:16 47.09835 -121.80845 9018 ft 205 kts 97°
2026-05-08 05:16 47.09669 -121.78692 9018 ft 205 kts 97°
2026-05-08 05:16 47.09502 -121.76537 9018 ft 205 kts 97°
2026-05-08 05:17 47.09338 -121.74430 9016 ft 205 kts 98°
2026-05-08 05:17 47.09174 -121.72310 9010 ft 205 kts 98°
2026-05-08 05:17 47.09009 -121.70218 9008 ft 205 kts 98°
2026-05-08 05:17 47.08842 -121.68102 9008 ft 204 kts 98°
2026-05-08 05:18 47.08678 -121.66031 9008 ft 204 kts 98°
2026-05-08 05:18 47.08511 -121.63927 9008 ft 204 kts 98°
2026-05-08 05:18 47.08344 -121.61822 9008 ft 204 kts 98°
2026-05-08 05:18 47.08177 -121.59731 9008 ft 204 kts 98°
2026-05-08 05:19 47.08010 -121.57642 9008 ft 204 kts 98°
2026-05-08 05:19 47.07846 -121.55595 9009 ft 204 kts 98°
2026-05-08 05:19 47.07680 -121.53526 9008 ft 204 kts 98°
2026-05-08 05:19 47.07576 -121.51444 9010 ft 204 kts 94°
2026-05-08 05:20 47.07480 -121.49330 9008 ft 204 kts 94°
2026-05-08 05:20 47.07386 -121.47252 9009 ft 204 kts 95°
2026-05-08 05:20 47.07291 -121.45169 9009 ft 204 kts 95°
2026-05-08 05:20 47.07197 -121.43105 9009 ft 204 kts 95°
2026-05-08 05:21 47.07100 -121.41011 9009 ft 204 kts 95°
2026-05-08 05:21 47.07002 -121.38918 9009 ft 204 kts 95°
2026-05-08 05:21 47.06904 -121.36845 9009 ft 204 kts 95°
2026-05-08 05:21 47.06806 -121.34766 9009 ft 204 kts 96°
2026-05-08 05:22 47.06707 -121.32691 9008 ft 204 kts 96°
2026-05-08 05:22 47.06607 -121.30607 9008 ft 204 kts 96°
2026-05-08 05:22 47.06507 -121.28510 9008 ft 204 kts 96°
2026-05-08 05:22 47.06407 -121.26430 9008 ft 204 kts 96°
2026-05-08 05:23 47.06304 -121.24310 9009 ft 204 kts 95°
2026-05-08 05:23 47.06201 -121.22222 9008 ft 204 kts 95°
2026-05-08 05:23 47.06099 -121.20136 9008 ft 204 kts 95°
2026-05-08 05:23 47.05998 -121.18058 9008 ft 204 kts 95°
2026-05-08 05:24 47.05896 -121.15964 9008 ft 204 kts 95°
2026-05-08 05:24 47.05793 -121.13887 9008 ft 204 kts 95°
2026-05-08 05:24 47.05691 -121.11819 9008 ft 204 kts 95°
2026-05-08 05:24 47.05589 -121.09752 9008 ft 204 kts 95°
2026-05-08 05:25 47.05485 -121.07664 9008 ft 204 kts 95°
2026-05-08 05:25 47.05381 -121.05579 9008 ft 204 kts 95°
2026-05-08 05:25 47.05276 -121.03500 9008 ft 204 kts 95°
2026-05-08 05:25 47.05170 -121.01397 9008 ft 204 kts 95°
2026-05-08 05:26 47.05064 -120.99287 9008 ft 204 kts 95°
2026-05-08 05:26 47.04957 -120.97191 9004 ft 204 kts 95°
2026-05-08 05:26 47.04837 -120.95075 8950 ft 207 kts 96°
2026-05-08 05:26 47.04718 -120.92929 8887 ft 209 kts 95°
2026-05-08 05:27 47.04607 -120.90791 8874 ft 209 kts 95°
2026-05-08 05:27 47.04503 -120.88652 8871 ft 208 kts 95°
2026-05-08 05:27 47.04404 -120.86539 8871 ft 207 kts 95°
2026-05-08 05:27 47.04309 -120.84372 8870 ft 207 kts 93°
2026-05-08 05:28 47.04271 -120.82252 8871 ft 206 kts 93°
2026-05-08 05:28 47.04235 -120.80133 8871 ft 206 kts 92°
2026-05-08 05:28 47.04203 -120.78024 8871 ft 206 kts 92°
2026-05-08 05:28 47.04173 -120.75908 8871 ft 206 kts 92°
2026-05-08 05:29 47.04147 -120.73795 8870 ft 206 kts 91°
2026-05-08 05:29 47.04119 -120.71665 8872 ft 207 kts 91°
2026-05-08 05:29 47.04090 -120.69559 8872 ft 207 kts 91°
2026-05-08 05:29 47.04044 -120.67432 8872 ft 208 kts 91°
2026-05-08 05:30 47.04004 -120.65321 8872 ft 208 kts 90°
2026-05-08 05:30 47.03969 -120.63193 8872 ft 208 kts 90°
2026-05-08 05:30 47.03937 -120.61088 8872 ft 208 kts 90°
2026-05-08 05:30 47.03909 -120.58947 8872 ft 208 kts 90°
2026-05-08 05:31 47.03881 -120.56853 8872 ft 207 kts 90°
2026-05-08 05:31 47.03854 -120.54717 8872 ft 207 kts 90°
2026-05-08 05:31 47.03826 -120.52608 8872 ft 207 kts 90°
2026-05-08 05:31 47.03798 -120.50495 8872 ft 207 kts 90°
2026-05-08 05:32 47.03770 -120.48390 8872 ft 207 kts 90°
2026-05-08 05:32 47.03817 -120.46291 8869 ft 207 kts 79°
2026-05-08 05:32 47.04016 -120.44192 8874 ft 206 kts 79°
2026-05-08 05:32 47.04250 -120.42132 8873 ft 206 kts 78°
2026-05-08 05:33 47.04509 -120.40067 8872 ft 206 kts 77°
2026-05-08 05:33 47.04783 -120.37996 8872 ft 206 kts 77°
2026-05-08 05:33 47.05064 -120.35938 8872 ft 206 kts 77°
2026-05-08 05:33 47.05353 -120.33865 8872 ft 206 kts 77°
2026-05-08 05:34 47.05645 -120.31803 8872 ft 206 kts 77°
2026-05-08 05:34 47.05936 -120.29762 8872 ft 206 kts 77°
2026-05-08 05:34 47.06234 -120.27677 8872 ft 206 kts 77°
2026-05-08 05:34 47.06527 -120.25629 8872 ft 206 kts 77°
2026-05-08 05:35 47.06826 -120.23564 8873 ft 206 kts 77°
2026-05-08 05:35 47.07116 -120.21536 8872 ft 206 kts 77°
2026-05-08 05:35 47.07412 -120.19475 8871 ft 205 kts 77°
2026-05-08 05:35 47.07707 -120.17411 8871 ft 205 kts 77°
2026-05-08 05:36 47.07997 -120.15383 8871 ft 205 kts 77°
2026-05-08 05:36 47.08292 -120.13325 8872 ft 205 kts 77°
2026-05-08 05:36 47.08583 -120.11292 8872 ft 204 kts 77°
2026-05-08 05:36 47.08873 -120.09263 8872 ft 204 kts 77°
2026-05-08 05:37 47.09164 -120.07214 8872 ft 204 kts 77°
2026-05-08 05:37 47.09453 -120.05187 8872 ft 204 kts 77°
2026-05-08 05:37 47.09747 -120.03120 8846 ft 206 kts 77°
2026-05-08 05:37 47.10039 -120.01061 8837 ft 205 kts 77°
2026-05-08 05:38 47.10329 -119.99024 8835 ft 205 kts 77°
2026-05-08 05:38 47.10617 -119.96988 8835 ft 205 kts 77°
2026-05-08 05:38 47.10905 -119.94952 8835 ft 204 kts 77°
2026-05-08 05:38 47.11195 -119.92892 8849 ft 204 kts 77°
2026-05-08 05:39 47.11515 -119.90868 8853 ft 203 kts 75°
2026-05-08 05:39 47.11850 -119.88851 8853 ft 203 kts 75°
2026-05-08 05:39 47.12182 -119.86845 8853 ft 204 kts 75°
2026-05-08 05:39 47.12517 -119.84814 8854 ft 204 kts 75°
2026-05-08 05:40 47.12848 -119.82803 8854 ft 204 kts 75°
2026-05-08 05:40 47.13179 -119.80790 8854 ft 204 kts 75°
2026-05-08 05:40 47.13533 -119.78748 8854 ft 204 kts 75°
2026-05-08 05:40 47.13873 -119.76756 8854 ft 204 kts 75°
2026-05-08 05:41 47.14213 -119.74729 8853 ft 204 kts 75°
2026-05-08 05:41 47.14555 -119.72688 8853 ft 204 kts 76°
2026-05-08 05:41 47.14885 -119.70679 8853 ft 204 kts 76°
2026-05-08 05:41 47.15216 -119.68646 8853 ft 204 kts 76°
2026-05-08 05:42 47.15552 -119.66576 8853 ft 204 kts 76°
2026-05-08 05:42 47.15884 -119.64526 8853 ft 204 kts 76°
2026-05-08 05:42 47.16217 -119.62467 8853 ft 204 kts 76°
2026-05-08 05:42 47.16543 -119.60448 8902 ft 201 kts 76°
2026-05-08 05:43 47.16861 -119.58478 8984 ft 198 kts 76°
2026-05-08 05:43 47.17180 -119.56496 8999 ft 200 kts 76°
2026-05-08 05:43 47.17504 -119.54480 9000 ft 201 kts 76°
2026-05-08 05:43 47.17825 -119.52480 9000 ft 202 kts 76°
2026-05-08 05:44 47.18145 -119.50484 9000 ft 203 kts 76°
2026-05-08 05:44 47.18469 -119.48463 9000 ft 203 kts 76°
2026-05-08 05:44 47.18792 -119.46445 9000 ft 203 kts 76°
2026-05-08 05:44 47.19117 -119.44410 9001 ft 203 kts 76°
2026-05-08 05:45 47.19442 -119.42374 9008 ft 203 kts 76°
2026-05-08 05:45 47.19762 -119.40366 9009 ft 203 kts 76°
2026-05-08 05:45 47.20088 -119.38317 9009 ft 204 kts 76°
2026-05-08 05:45 47.20408 -119.36307 9009 ft 204 kts 76°
2026-05-08 05:46 47.20734 -119.34254 9009 ft 204 kts 77°
2026-05-08 05:46 47.21079 -119.32217 9007 ft 204 kts 73°
2026-05-08 05:46 47.21477 -119.30228 8923 ft 206 kts 73°
2026-05-08 05:46 47.21903 -119.28176 8780 ft 208 kts 73°
2026-05-08 05:47 47.22335 -119.26132 8630 ft 209 kts 73°
2026-05-08 05:47 47.22772 -119.24085 8481 ft 210 kts 72°
2026-05-08 05:47 47.23213 -119.22028 8332 ft 210 kts 72°
2026-05-08 05:47 47.23653 -119.19993 8183 ft 211 kts 72°
2026-05-08 05:48 47.24101 -119.17924 8033 ft 211 kts 72°
2026-05-08 05:48 47.24546 -119.15870 7883 ft 211 kts 72°
2026-05-08 05:48 47.24998 -119.13785 7730 ft 211 kts 72°
2026-05-08 05:48 47.25446 -119.11714 7577 ft 211 kts 72°
2026-05-08 05:49 47.25894 -119.09657 7428 ft 212 kts 71°
2026-05-08 05:49 47.26361 -119.07594 7278 ft 212 kts 72°
2026-05-08 05:49 47.26820 -119.05500 7125 ft 211 kts 72°
2026-05-08 05:49 47.27257 -119.03463 6976 ft 210 kts 72°
2026-05-08 05:50 47.27700 -119.01394 6823 ft 210 kts 72°
2026-05-08 05:50 47.28136 -118.99365 6674 ft 209 kts 72°
2026-05-08 05:50 47.28578 -118.97307 6522 ft 209 kts 72°
2026-05-08 05:50 47.29021 -118.95247 6370 ft 208 kts 72°
2026-05-08 05:51 47.29472 -118.93146 6215 ft 208 kts 72°
2026-05-08 05:51 47.29917 -118.91069 6061 ft 208 kts 72°
2026-05-08 05:51 47.30363 -118.88992 5907 ft 207 kts 73°
2026-05-08 05:51 47.30800 -118.86947 5756 ft 207 kts 73°
2026-05-08 05:52 47.31234 -118.84920 5606 ft 207 kts 73°
2026-05-08 05:52 47.31664 -118.82907 5456 ft 207 kts 73°
2026-05-08 05:52 47.31791 -118.80666 5293 ft 204 kts 103°
2026-05-08 05:52 47.31238 -118.78430 5123 ft 202 kts 120°
2026-05-08 05:53 47.30420 -118.76399 4953 ft 200 kts 125°
2026-05-08 05:53 47.29474 -118.74326 4769 ft 200 kts 126°
2026-05-08 05:53 47.28517 -118.72303 4588 ft 200 kts 127°
2026-05-08 05:53 47.27556 -118.70290 4408 ft 200 kts 127°
2026-05-08 05:54 47.26589 -118.68272 4227 ft 200 kts 127°
2026-05-08 05:54 47.25619 -118.66253 4046 ft 199 kts 127°
2026-05-08 05:54 47.24684 -118.64305 3862 ft 194 kts 127°
2026-05-08 05:54 47.23741 -118.62348 3758 ft 190 kts 127°
2026-05-08 05:55 47.22817 -118.60426 3586 ft 188 kts 127°
2026-05-08 05:55 47.21905 -118.58532 3471 ft 186 kts 126°
2026-05-08 05:55 47.20999 -118.56651 3290 ft 185 kts 127°
2026-05-08 05:55 47.20129 -118.54848 3114 ft 185 kts 127°
2026-05-08 05:56 47.19233 -118.52988 2933 ft 184 kts 127°
2026-05-08 05:56 47.18343 -118.51148 2821 ft 180 kts 126°
2026-05-08 05:56 47.17480 -118.49357 2806 ft 174 kts 127°
2026-05-08 05:56 47.16657 -118.47653 2826 ft 169 kts 127°
2026-05-08 05:57 47.15844 -118.45970 2823 ft 167 kts 127°
2026-05-08 05:57 47.15044 -118.44323 2808 ft 164 kts 127°
2026-05-08 05:57 47.14291 -118.42770 2809 ft 163 kts 127°
2026-05-08 05:57 47.13640 -118.41424 2834 ft 162 kts 127°
2026-05-08 05:58 47.12977 -118.40061 2813 ft 163 kts 127°
2026-05-08 05:58 47.12304 -118.38673 2808 ft 162 kts 127°
2026-05-08 05:58 47.11644 -118.37315 2819 ft 161 kts 126°
2026-05-08 05:58 47.11078 -118.35612 2750 ft 155 kts 91°
2026-05-08 05:59 47.11604 -118.34225 2775 ft 145 kts 29°
2026-05-08 05:59 47.12537 -118.33493 2780 ft 141 kts 24°
2026-05-08 05:59 47.13445 -118.32876 2687 ft 137 kts 19°
2026-05-08 05:59 47.14332 -118.33027 2502 ft 124 kts 319°
2026-05-08 06:00 47.14830 -118.34198 2391 ft 110 kts 275°
2026-05-08 06:00 47.14548 -118.35383 2317 ft 101 kts 249°
2026-05-08 06:00 47.14331 -118.36543 2225 ft 106 kts 250°
2026-05-08 06:00 47.13901 -118.37554 2132 ft 108 kts 230°
2026-05-08 06:01 47.13329 -118.38168 1968 ft 99 kts 204°
2026-05-08 06:01 47.12743 -118.38629 1823 ft 85 kts 205°
2026-05-08 06:01 47.12285 -118.38984 1804 ft 23 kts 195°
2026-05-08 06:01 47.12185 -118.39060 1803 ft 11 kts 208°
2026-05-08 06:02 47.12119 -118.39105 1804 ft 4 kts 171°
2026-05-08 06:02 47.12111 -118.39090 1803 ft 1 kts 115°
2026-05-08 06:02 47.12104 -118.39070 1804 ft 0 kts 122°
2026-05-08 06:02 47.12094 -118.39071 1803 ft 2 kts 208°
2026-05-08 06:03 47.12070 -118.39090 1803 ft 4 kts 207°
2026-05-08 06:03 47.12031 -118.39119 1803 ft 6 kts 211°
2026-05-08 06:03 47.11976 -118.39162 1804 ft 8 kts 207°
2026-05-08 06:03 47.11921 -118.39224 1804 ft 9 kts 281°
2026-05-08 06:04 47.11980 -118.39217 1804 ft 10 kts 27°
2026-05-08 06:04 47.12056 -118.39162 1804 ft 13 kts 35°
2026-05-08 06:04 47.12108 -118.39077 1803 ft 8 kts 98°
2026-05-08 06:04 47.12159 -118.39024 1803 ft 11 kts 28°
2026-05-08 06:05 47.12239 -118.38961 1803 ft 14 kts 28°
2026-05-08 06:05 47.12339 -118.38888 1804 ft 16 kts 18°
2026-05-08 06:05 47.12378 -118.38863 1803 ft 7 kts 46°
2026-05-08 06:05 47.12460 -118.38792 1804 ft 14 kts 28°
2026-05-08 06:06 47.12549 -118.38724 1803 ft 14 kts 29°
2026-05-08 06:06 47.12636 -118.38656 1803 ft 14 kts 27°
2026-05-08 06:06 47.12686 -118.38563 1803 ft 12 kts 111°
2026-05-08 06:06 47.12682 -118.38502 1803 ft 0 kts 337°
2026-05-08 06:07 47.12683 -118.38505 1803 ft 0 kts 295°